TimeCST,TemperatureF,Dew PointF,Humidity,Sea Level PressureIn,VisibilityMPH,Wind Direction,Wind SpeedMPH,Gust SpeedMPH,PrecipitationIn,Events,Conditions,WindDirDegrees,DateUTC
12:15 AM,64.4,55.4,73,29.98,10.0,SSE,16.1,21.9,N/A,,Clear,160,2012-11-09 06:15:00
12:35 AM,64.4,55.4,73,29.98,10.0,SSE,16.1,20.7,N/A,,Clear,160,2012-11-09 06:35:00
12:55 AM,64.4,55.4,73,29.98,10.0,SSE,15.0,19.6,N/A,,Clear,160,2012-11-09 06:55:00
1:15 AM,64.4,55.4,73,29.98,10.0,South,16.1,23.0,N/A,,Clear,170,2012-11-09 07:15:00
1:35 AM,64.4,55.4,73,29.98,10.0,South,12.7,-,N/A,,Clear,170,2012-11-09 07:35:00
1:55 AM,64.4,57.2,77,29.98,10.0,South,16.1,20.7,N/A,,Clear,170,2012-11-09 07:55:00
2:15 AM,64.4,59.0,83,29.98,10.0,South,17.3,-,N/A,,Clear,170,2012-11-09 08:15:00
2:35 AM,64.4,59.0,83,29.98,10.0,South,15.0,24.2,N/A,,Clear,170,2012-11-09 08:35:00
2:55 AM,64.4,59.0,83,29.98,10.0,South,18.4,25.3,N/A,,Clear,170,2012-11-09 08:55:00
3:15 AM,64.4,59.0,83,29.98,10.0,South,15.0,-,N/A,,Clear,170,2012-11-09 09:15:00
3:35 AM,64.4,60.8,88,29.98,10.0,South,17.3,20.7,N/A,,Clear,170,2012-11-09 09:35:00
3:55 AM,64.4,60.8,88,29.98,10.0,South,17.3,-,N/A,,Clear,170,2012-11-09 09:55:00
4:15 AM,64.4,60.8,88,29.98,10.0,South,15.0,20.7,N/A,,Mostly Cloudy,170,2012-11-09 10:15:00
4:35 AM,64.4,60.8,88,29.98,10.0,SSE,15.0,-,N/A,,Scattered Clouds,160,2012-11-09 10:35:00
4:55 AM,64.4,60.8,88,29.98,10.0,SSE,11.5,-,N/A,,Clear,160,2012-11-09 10:55:00
5:15 AM,62.6,59.0,88,29.98,10.0,South,15.0,18.4,N/A,,Clear,170,2012-11-09 11:15:00
5:35 AM,62.6,59.0,88,29.99,10.0,SSE,11.5,-,N/A,,Clear,160,2012-11-09 11:35:00
5:55 AM,62.6,59.0,88,29.99,10.0,SSE,11.5,-,N/A,,Clear,160,2012-11-09 11:55:00
6:15 AM,62.6,59.0,88,29.99,10.0,SSE,11.5,-,N/A,,Clear,160,2012-11-09 12:15:00
6:35 AM,62.6,59.0,88,29.99,10.0,South,10.4,-,N/A,,Clear,170,2012-11-09 12:35:00
6:55 AM,62.6,59.0,88,29.99,10.0,SSE,9.2,-,N/A,,Clear,160,2012-11-09 12:55:00
7:15 AM,60.8,57.2,88,30.00,10.0,SSE,6.9,-,N/A,,Clear,150,2012-11-09 13:15:00
7:35 AM,60.8,57.2,88,30.00,10.0,SSE,8.1,-,N/A,,Clear,150,2012-11-09 13:35:00
7:55 AM,62.6,59.0,88,30.01,10.0,SSE,11.5,-,N/A,,Clear,150,2012-11-09 13:55:00
8:15 AM,62.6,59.0,88,30.01,10.0,SSE,10.4,16.1,N/A,,Clear,150,2012-11-09 14:15:00
8:35 AM,64.4,60.8,88,30.02,10.0,South,15.0,20.7,N/A,,Mostly Cloudy,170,2012-11-09 14:35:00
8:55 AM,64.4,59.0,83,30.02,10.0,South,20.7,26.5,N/A,,Overcast,170,2012-11-09 14:55:00
9:15 AM,64.4,59.0,83,30.02,10.0,SSE,18.4,26.5,N/A,,Overcast,160,2012-11-09 15:15:00
9:35 AM,66.2,59.0,78,30.02,10.0,South,19.6,27.6,N/A,,Overcast,170,2012-11-09 15:35:00
9:55 AM,68.0,60.8,78,30.03,10.0,SSE,17.3,25.3,N/A,,Overcast,160,2012-11-09 15:55:00
10:15 AM,69.8,60.8,73,30.02,10.0,SSE,16.1,26.5,N/A,,Overcast,160,2012-11-09 16:15:00
10:35 AM,69.8,60.8,73,30.02,10.0,South,20.7,26.5,N/A,,Mostly Cloudy,180,2012-11-09 16:35:00
10:55 AM,71.6,60.8,69,30.01,10.0,South,24.2,29.9,N/A,,Scattered Clouds,170,2012-11-09 16:55:00
11:15 AM,71.6,59.0,64,30.00,10.0,South,20.7,28.8,N/A,,Clear,170,2012-11-09 17:15:00
11:35 AM,73.4,60.8,65,30.00,10.0,South,21.9,26.5,N/A,,Scattered Clouds,180,2012-11-09 17:35:00
11:55 AM,71.6,59.0,64,29.99,10.0,South,26.5,31.1,N/A,,Scattered Clouds,170,2012-11-09 17:55:00
12:15 PM,73.4,60.8,65,29.97,10.0,South,21.9,32.2,N/A,,Scattered Clouds,170,2012-11-09 18:15:00
12:35 PM,75.2,60.8,61,29.96,10.0,SSE,20.7,28.8,N/A,,Scattered Clouds,160,2012-11-09 18:35:00
12:55 PM,75.2,59.0,57,29.95,10.0,South,19.6,29.9,N/A,,Mostly Cloudy,170,2012-11-09 18:55:00
1:15 PM,77.0,59.0,54,29.94,10.0,South,24.2,28.8,N/A,,Scattered Clouds,180,2012-11-09 19:15:00
1:35 PM,77.0,57.2,50,29.93,10.0,South,21.9,28.8,N/A,,Scattered Clouds,170,2012-11-09 19:35:00
1:55 PM,77.0,57.2,50,29.92,10.0,South,20.7,31.1,N/A,,Clear,170,2012-11-09 19:55:00
2:15 PM,77.0,57.2,50,29.92,10.0,SSE,18.4,29.9,N/A,,Clear,160,2012-11-09 20:15:00
2:35 PM,77.0,57.2,50,29.92,10.0,SSE,18.4,27.6,N/A,,Clear,160,2012-11-09 20:35:00
2:55 PM,77.0,57.2,50,29.91,10.0,SSE,18.4,27.6,N/A,,Clear,160,2012-11-09 20:55:00
3:15 PM,77.0,57.2,50,29.91,10.0,SSE,18.4,27.6,N/A,,Clear,160,2012-11-09 21:15:00
3:35 PM,77.0,55.4,47,29.90,10.0,SSE,18.4,25.3,N/A,,Clear,160,2012-11-09 21:35:00
3:55 PM,78.8,53.6,42,29.90,10.0,South,19.6,28.8,N/A,,Clear,170,2012-11-09 21:55:00
4:15 PM,77.0,53.6,44,29.90,10.0,South,19.6,27.6,N/A,,Clear,170,2012-11-09 22:15:00
4:35 PM,77.0,53.6,44,29.90,10.0,SSE,19.6,26.5,N/A,,Clear,150,2012-11-09 22:35:00
4:55 PM,75.2,53.6,47,29.90,10.0,SSE,17.3,23.0,N/A,,Clear,160,2012-11-09 22:55:00
5:15 PM,75.2,53.6,47,29.91,10.0,SSE,17.3,23.0,N/A,,Clear,160,2012-11-09 23:15:00
5:35 PM,75.2,53.6,47,29.91,10.0,SSE,16.1,23.0,N/A,,Clear,160,2012-11-09 23:35:00
5:55 PM,73.4,53.6,50,29.92,10.0,SSE,18.4,26.5,N/A,,Clear,160,2012-11-09 23:55:00
6:15 PM,73.4,53.6,50,29.92,10.0,South,16.1,-,N/A,,Clear,170,2012-11-10 00:15:00
6:35 PM,71.6,53.6,53,29.92,10.0,SSE,16.1,-,N/A,,Clear,160,2012-11-10 00:35:00
6:55 PM,71.6,55.4,57,29.93,10.0,SSE,12.7,-,N/A,,Clear,150,2012-11-10 00:55:00
7:15 PM,71.6,55.4,57,29.93,10.0,SSE,17.3,-,N/A,,Clear,160,2012-11-10 01:15:00
7:35 PM,71.6,55.4,57,29.93,10.0,SSE,11.5,-,N/A,,Clear,150,2012-11-10 01:35:00
7:55 PM,69.8,55.4,60,29.94,10.0,SSE,10.4,-,N/A,,Clear,150,2012-11-10 01:55:00
8:15 PM,69.8,55.4,60,29.94,10.0,SSE,10.4,-,N/A,,Clear,150,2012-11-10 02:15:00
8:35 PM,69.8,55.4,60,29.95,10.0,SSE,13.8,-,N/A,,Clear,150,2012-11-10 02:35:00
8:55 PM,69.8,55.4,60,29.95,10.0,SSE,16.1,-,N/A,,Clear,160,2012-11-10 02:55:00
9:15 PM,69.8,55.4,60,29.95,10.0,SSE,15.0,-,N/A,,Clear,160,2012-11-10 03:15:00
9:35 PM,69.8,53.6,56,29.95,10.0,SSE,15.0,23.0,N/A,,Clear,160,2012-11-10 03:35:00
9:55 PM,69.8,53.6,56,29.96,10.0,SSE,15.0,21.9,N/A,,Clear,160,2012-11-10 03:55:00
10:15 PM,69.8,53.6,56,29.96,10.0,SSE,17.3,23.0,N/A,,Clear,160,2012-11-10 04:15:00
10:35 PM,69.8,53.6,56,29.97,10.0,SSE,16.1,23.0,N/A,,Clear,160,2012-11-10 04:35:00
10:55 PM,69.8,53.6,56,29.96,10.0,SSE,18.4,25.3,N/A,,Clear,160,2012-11-10 04:55:00
11:15 PM,69.8,53.6,56,29.96,10.0,SSE,17.3,27.6,N/A,,Clear,160,2012-11-10 05:15:00
11:35 PM,69.8,53.6,56,29.96,10.0,SSE,16.1,24.2,N/A,,Clear,160,2012-11-10 05:35:00
11:55 PM,68.0,53.6,60,29.96,10.0,South,17.3,24.2,N/A,,Clear,170,2012-11-10 05:55:00